When you browse on this site, cookies collect data to enhance your experience and personalize the content and advertising you see.
Visit our Privacy Policy to learn more. By continuing to use the site, you agree to this use of cookies and data.
  • In Netherlands
  • List of Countries
  • For 7 days
  • Water Temperature
  • Weather Map
  • Weather Widgets
  • user-avatar
    Login

    Hourly Weather Cochabamba

    Today, 8 December, Sunday

    Time Temperature Precipitation Wind Pressure Humidity
    00:00 +17°C° 0.1 mm 2 mps 554 mmHg 78%
    01:00 +16°C° 0.1 mm 2 mps 553 mmHg 78%
    02:00 +16°C° 0 mm 2 mps 553 mmHg 81%
    03:00 +16°C° 0.1 mm 1 mps 553 mmHg 81%
    04:00 +16°C° 0.1 mm 1 mps 553 mmHg 82%
    05:00 +16°C° 0.1 mm 1 mps 553 mmHg 82%
    06:00 +16°C° 0.1 mm 1 mps 553 mmHg 79%
    07:00 +18°C° 0.1 mm 1 mps 554 mmHg 77%
    08:00 +18°C° 0 mm 1 mps 555 mmHg 74%
    09:00 +19°C° 0.6 mm 1 mps 555 mmHg 71%
    10:00 +20°C° 0.6 mm 1 mps 555 mmHg 69%
    11:00 +20°C° 0.6 mm 2 mps 555 mmHg 66%
    12:00 +21°C° 0.7 mm 2 mps 555 mmHg 64%
    13:00 +21°C° 0.7 mm 3 mps 554 mmHg 62%
    14:00 +21°C° 0.7 mm 3 mps 554 mmHg 60%
    15:00 +21°C° 0.5 mm 3 mps 554 mmHg 60%
    16:00 +21°C° 0.5 mm 3 mps 553 mmHg 61%
    17:00 +21°C° 0.5 mm 3 mps 553 mmHg 62%
    18:00 +20°C° 0.4 mm 2 mps 553 mmHg 66%
    19:00 +19°C° 0.4 mm 2 mps 553 mmHg 70%
    20:00 +18°C° 0.4 mm 2 mps 553 mmHg 75%
    21:00 +18°C° 0.2 mm 2 mps 553 mmHg 76%
    22:00 +18°C° 0.2 mm 1 mps 553 mmHg 77%
    23:00 +18°C° 0.2 mm 1 mps 554 mmHg 78%

    Tomorrow, 9 December, Monday

    Time Temperature Precipitation Wind Pressure Humidity
    00:00 +18°C° 0.1 mm 1 mps 553 mmHg 79%
    01:00 +16°C° 0.1 mm 1 mps 553 mmHg 80%
    02:00 +16°C° 0.1 mm 1 mps 553 mmHg 81%
    03:00 +16°C° 0 mm 1 mps 552 mmHg 83%
    04:00 +15°C° 0 mm 1 mps 552 mmHg 85%
    05:00 +15°C° 0 mm 1 mps 552 mmHg 86%
    06:00 +16°C° 0.1 mm 1 mps 553 mmHg 84%
    07:00 +16°C° 0.1 mm 1 mps 554 mmHg 81%
    08:00 +18°C° 0.1 mm 1 mps 554 mmHg 79%
    09:00 +19°C° 0.5 mm 1 mps 555 mmHg 75%
    10:00 +20°C° 0.5 mm 1 mps 555 mmHg 71%
    11:00 +21°C° 0.5 mm 1 mps 556 mmHg 67%
    12:00 +21°C° 0.5 mm 1 mps 555 mmHg 65%
    13:00 +21°C° 0.5 mm 2 mps 555 mmHg 62%
    14:00 +23°C° 0.5 mm 2 mps 554 mmHg 60%
    15:00 +21°C° 0.6 mm 3 mps 554 mmHg 62%
    16:00 +21°C° 0.6 mm 3 mps 554 mmHg 65%
    17:00 +20°C° 0.6 mm 3 mps 554 mmHg 67%
    18:00 +19°C° 0.6 mm 3 mps 553 mmHg 71%
    19:00 +19°C° 0.6 mm 2 mps 553 mmHg 75%
    20:00 +18°C° 0.6 mm 2 mps 553 mmHg 79%
    21:00 +18°C° 0.1 mm 1 mps 554 mmHg 80%
    22:00 +18°C° 0.1 mm 1 mps 554 mmHg 81%
    23:00 +18°C° 0.1 mm 1 mps 554 mmHg 82%

    Day after tomorrow, 10 December, Tuesday

    Time Temperature Precipitation Wind Pressure Humidity
    00:00 +18°C° 0 mm 1 mps 554 mmHg 83%
    01:00 +18°C° 0 mm 1 mps 554 mmHg 83%
    02:00 +16°C° 0 mm 1 mps 554 mmHg 84%
    03:00 +16°C° 0.1 mm 1 mps 553 mmHg 84%
    04:00 +16°C° 0.1 mm 1 mps 553 mmHg 84%
    05:00 +16°C° 0.1 mm 1 mps 553 mmHg 85%
    06:00 +16°C° 0 mm 1 mps 554 mmHg 83%
    07:00 +18°C° 0 mm 1 mps 554 mmHg 81%
    08:00 +16°C° 0 mm 0 mps 555 mmHg 79%
    09:00 +19°C° 0.2 mm 1 mps 555 mmHg 75%
    10:00 +20°C° 0.2 mm 1 mps 555 mmHg 71%
    11:00 +21°C° 0.2 mm 1 mps 556 mmHg 66%
    12:00 +20°C° 0.6 mm 2 mps 556 mmHg 65%
    13:00 +21°C° 0.6 mm 2 mps 555 mmHg 64%
    14:00 +21°C° 0.6 mm 2 mps 555 mmHg 63%
    15:00 +21°C° 0.5 mm 2 mps 554 mmHg 62%
    16:00 +21°C° 0.5 mm 2 mps 554 mmHg 62%
    17:00 +21°C° 0.5 mm 2 mps 554 mmHg 61%
    18:00 +20°C° 0 mm 2 mps 554 mmHg 65%
    19:00 +20°C° 0 mm 2 mps 554 mmHg 69%
    20:00 +19°C° 0 mm 2 mps 554 mmHg 73%
    21:00 +18°C° 0.1 mm 2 mps 554 mmHg 76%
    22:00 +19°C° 0.1 mm 1 mps 554 mmHg 78%
    23:00 +19°C° 0.1 mm 1 mps 554 mmHg 81%

    11 December, Wednesday

    Time Temperature Precipitation Wind Pressure Humidity
    00:00 +18°C° 0.1 mm 1 mps 554 mmHg 82%
    01:00 +18°C° 0.1 mm 1 mps 554 mmHg 83%
    02:00 +18°C° 0.1 mm 1 mps 553 mmHg 84%
    03:00 +18°C° 0.2 mm 1 mps 553 mmHg 84%
    04:00 +16°C° 0.2 mm 1 mps 553 mmHg 83%
    05:00 +16°C° 0.2 mm 1 mps 553 mmHg 83%
    06:00 +18°C° 0.2 mm 1 mps 553 mmHg 80%
    07:00 +18°C° 0.2 mm 1 mps 554 mmHg 77%
    08:00 +19°C° 0.2 mm 1 mps 554 mmHg 75%
    09:00 +20°C° 0.6 mm 1 mps 555 mmHg 72%
    10:00 +20°C° 0.6 mm 1 mps 555 mmHg 69%
    11:00 +21°C° 0.6 mm 1 mps 555 mmHg 66%
    12:00 +22°C° 0.7 mm 1 mps 555 mmHg 63%
    13:00 +23°C° 0.7 mm 1 mps 555 mmHg 60%
    14:00 +24°C° 0.7 mm 1 mps 554 mmHg 57%
    15:00 +24°C° 0.7 mm 1 mps 554 mmHg 57%
    16:00 +24°C° 0.7 mm 2 mps 553 mmHg 57%
    17:00 +24°C° 0.7 mm 2 mps 553 mmHg 57%
    18:00 +23°C° 0.3 mm 2 mps 553 mmHg 63%
    19:00 +21°C° 0.3 mm 2 mps 553 mmHg 68%
    20:00 +20°C° 0.3 mm 2 mps 553 mmHg 73%
    21:00 +19°C° 0.7 mm 2 mps 553 mmHg 75%
    22:00 +19°C° 0.7 mm 2 mps 553 mmHg 78%
    23:00 +18°C° 0.7 mm 2 mps 553 mmHg 80%

    12 December, Thursday

    Time Temperature Precipitation Wind Pressure Humidity
    00:00 +18°C° 0.5 mm 2 mps 553 mmHg 80%
    01:00 +17°C° 0.5 mm 2 mps 552 mmHg 81%
    02:00 +18°C° 0.5 mm 1 mps 552 mmHg 81%
    03:00 +18°C° 0.6 mm 1 mps 552 mmHg 82%
    04:00 +16°C° 0.6 mm 1 mps 552 mmHg 82%
    05:00 +15°C° 0.6 mm 0 mps 552 mmHg 82%
    06:00 +16°C° 0.3 mm 0 mps 552 mmHg 76%
    07:00 +19°C° 0.3 mm 1 mps 553 mmHg 70%
    08:00 +20°C° 0.3 mm 1 mps 554 mmHg 64%
    09:00 +22°C° 0.7 mm 1 mps 555 mmHg 59%
    10:00 +23°C° 0.7 mm 2 mps 555 mmHg 53%
    11:00 +24°C° 0.7 mm 2 mps 556 mmHg 48%
    12:00 +25°C° 0.7 mm 3 mps 556 mmHg 47%
    13:00 +25°C° 0.7 mm 4 mps 555 mmHg 46%
    14:00 +25°C° 0.7 mm 5 mps 555 mmHg 44%
    15:00 +25°C° 0.5 mm 5 mps 555 mmHg 46%
    16:00 +25°C° 0.5 mm 5 mps 554 mmHg 48%
    17:00 +23°C° 0.5 mm 5 mps 554 mmHg 50%
    18:00 +22°C° 0.2 mm 4 mps 554 mmHg 56%
    19:00 +20°C° 0.2 mm 3 mps 554 mmHg 61%
    20:00 +19°C° 0.2 mm 2 mps 554 mmHg 67%
    21:00 +19°C° 0.2 mm 2 mps 554 mmHg 68%
    22:00 +18°C° 0.2 mm 2 mps 554 mmHg 70%
    23:00 +17°C° 0.2 mm 2 mps 554 mmHg 71%

    13 December, Friday

    Time Temperature Precipitation Wind Pressure Humidity
    00:00 +18°C° 0.3 mm 1 mps 554 mmHg 74%
    01:00 +18°C° 0.3 mm 1 mps 554 mmHg 76%
    02:00 +16°C° 0.3 mm 1 mps 553 mmHg 79%
    03:00 +16°C° 0.2 mm 1 mps 553 mmHg 79%
    04:00 +15°C° 0.2 mm 1 mps 553 mmHg 80%
    05:00 +15°C° 0.2 mm 1 mps 553 mmHg 81%
    06:00 +16°C° 0 mm 1 mps 554 mmHg 77%
    07:00 +18°C° 0 mm 1 mps 554 mmHg 73%
    08:00 +18°C° 0 mm 1 mps 555 mmHg 68%
    09:00 +20°C° 0.2 mm 1 mps 555 mmHg 63%
    10:00 +21°C° 0.2 mm 1 mps 556 mmHg 58%
    11:00 +21°C° 0.2 mm 2 mps 556 mmHg 53%
    12:00 +21°C° 0.4 mm 2 mps 556 mmHg 51%
    13:00 +22°C° 0.4 mm 3 mps 556 mmHg 50%
    14:00 +23°C° 0.4 mm 4 mps 555 mmHg 49%
    15:00 +21°C° 1.5 mm 4 mps 554 mmHg 55%
    16:00 +20°C° 1.5 mm 4 mps 554 mmHg 61%
    17:00 +18°C° 1.5 mm 4 mps 553 mmHg 67%
    18:00 +18°C° 0.4 mm 3 mps 553 mmHg 68%
    19:00 +17°C° 0.4 mm 2 mps 554 mmHg 69%
    20:00 +18°C° 0.4 mm 1 mps 554 mmHg 70%
    21:00 +18°C° 0 mm 1 mps 554 mmHg 71%
    22:00 +16°C° 0 mm 1 mps 554 mmHg 72%
    23:00 +16°C° 0 mm 1 mps 554 mmHg 74%
    Show more